Wind_Speed
18 18 17 16 15 15 15 14 12 11 11 11 11 11 11 12 13 13 13 13 13 13 13 12 12 11 11 11 11 11 11 11 11 12 12 13 15 18 23 26 26 24 22
19 19 18 18 18 17 16 14 12 11 11 12 12 13 14 15 16 17 17 17 16 16 16 16 15 15 15 14 13 12 12 12 12 13 13 14 15 17 20 24 27 28 26
20 19 20 20 19 18 16 14 13 13 14 14 15 16 17 18 19 19 20 20 19 19 18 18 18 18 17 16 15 14 13 13 13 13 13 13 14 16 18 21 25 28 29
21 21 21 20 18 17 16 15 15 16 16 17 18 19 19 20 21 21 22 22 22 21 20 20 20 19 17 16 15 15 14 14 14 14 14 14 13 14 17 20 23 26 29
23 22 22 19 18 17 17 18 19 19 19 19 21 22 22 22 23 23 23 23 23 22 21 21 21 20 17 15 14 14 15 14 14 15 15 15 15 14 15 17 20 23 27
23 22 21 20 19 20 21 22 23 23 23 23 23 24 24 25 25 25 24 24 24 24 23 22 21 19 17 14 13 13 14 14 14 15 16 16 16 16 15 15 17 20 24
22 21 21 21 22 23 24 25 25 26 26 26 26 26 26 26 26 25 25 25 25 24 23 22 21 19 17 15 14 14 14 14 14 15 16 16 17 17 17 16 15 16 20
22 23 23 24 25 25 26 27 27 27 27 28 28 28 28 28 27 27 27 26 26 24 23 22 21 20 18 17 16 16 15 15 16 16 16 16 16 18 19 19 17 15 15
24 25 26 27 28 28 28 28 29 29 29 29 28 28 28 28 27 27 27 27 25 24 23 23 22 21 20 19 19 18 17 17 18 18 18 17 17 17 19 21 21 19 17
26 27 28 28 29 29 29 29 28 28 28 28 28 28 27 27 27 26 26 25 25 24 24 24 24 23 23 23 22 21 20 21 21 21 20 19 19 19 19 21 22 23 22
27 28 28 28 28 28 27 27 27 26 26 26 27 27 27 27 27 27 27 27 27 26 26 27 27 27 28 28 27 26 25 25 25 25 24 23 22 21 21 22 22 24 25
26 26 26 25 25 26 26 25 25 25 25 26 27 28 28 29 29 30 30 30 31 31 31 31 32 32 33 33 33 32 31 30 29 28 28 27 26 25 24 25 25 25 25
25 25 25 25 26 27 27 28 28 28 29 30 31 32 32 33 34 34 35 35 36 36 37 37 38 38 39 39 39 38 37 36 34 33 32 32 31 30 29 28 28 28 28
26 26 27 27 28 29 30 31 32 33 34 35 36 37 37 38 39 40 40 41 41 42 42 43 44 44 44 45 45 44 43 42 41 39 37 36 36 35 34 32 31 31 31
26 27 27 28 29 30 32 33 34 34 36 37 38 38 39 40 41 42 42 43 44 45 46 47 48 49 49 50 50 49 48 47 46 43 41 38 38 38 38 37 35 34 34
27 28 30 32 33 35 36 37 38 39 40 40 41 42 42 42 42 43 43 44 44 44 45 47 49 51 52 53 53 53 52 51 49 47 45 42 40 39 40 40 39 38 37
30 32 34 36 38 40 41 43 44 45 45 46 46 47 47 47 47 47 47 47 47 47 47 48 49 51 53 54 54 55 54 53 51 50 48 45 43 42 42 42 43 42 41
35 38 40 42 44 45 47 48 49 49 50 50 51 51 52 52 52 52 51 51 51 50 50 50 50 51 53 54 55 55 55 55 54 52 50 48 46 44 44 44 45 45 44
42 44 46 48 50 51 52 53 53 53 53 53 53 54 54 55 55 54 54 53 53 53 52 51 51 52 54 55 55 56 57 57 56 54 52 49 47 46 45 45 46 46 46
48 50 52 53 55 56 56 57 57 56 56 55 55 55 55 55 54 54 54 54 53 53 52 51 52 53 54 55 55 56 57 58 57 55 53 50 49 47 47 47 48 48 48
53 53 53 54 55 56 57 58 58 58 57 57 56 55 54 54 54 54 53 53 52 52 51 51 52 53 54 55 55 56 57 57 57 55 54 52 50 48 48 48 48 48 49
54 54 54 54 55 56 57 58 59 59 58 57 56 55 55 55 54 53 53 52 52 51 51 51 51 52 53 53 53 54 56 57 56 55 54 52 51 49 48 48 48 48 49
53 54 54 54 55 56 57 58 59 59 59 58 57 56 55 55 55 54 53 53 53 52 52 52 52 52 51 51 50 50 51 53 53 52 51 49 49 48 49 49 49 49 50
58 58 59 59 59 59 60 61 61 61 61 60 58 57 57 56 55 55 55 54 54 53 52 52 53 52 52 51 49 48 49 49 50 49 48 49 49 50 50 51 52 52 53
66 67 67 68 67 67 65 64 64 64 63 62 60 59 58 57 56 55 54 53 53 51 51 51 52 53 53 52 50 49 49 49 49 49 49 48 49 51 52 53 54 55 56
75 75 75 75 74 72 69 67 66 65 64 63 61 59 57 56 55 53 52 51 50 49 49 50 51 53 53 53 52 50 50 49 49 49 49 48 50 51 53 54 55 56 57
Wind_Direction
268 274 279 281 283 283 283 284 283 281 276 273 274 272 273 277 283 287 286 289 292 292 293 294 298 303 301 291 283 279 275 273 268 262 256 251 249 246 242 239 239 240 236
272 274 279 281 283 282 278 276 275 272 268 268 270 270 272 275 279 282 281 283 286 288 290 291 294 299 299 290 279 274 273 271 267 264 259 254 249 247 244 240 238 240 241
273 275 278 281 281 278 273 271 272 271 268 265 265 266 268 271 274 276 277 279 283 287 289 290 293 299 298 289 277 269 268 267 264 261 259 257 254 250 247 243 240 239 240
276 278 280 280 278 274 273 272 272 273 273 270 267 266 267 270 271 273 275 278 282 286 289 290 294 298 296 286 273 264 262 263 261 259 257 256 257 255 251 247 243 242 241
278 279 279 278 276 275 276 275 274 274 275 275 273 271 271 271 272 273 275 278 281 285 288 290 292 295 293 284 273 265 261 259 260 259 257 256 256 255 253 249 247 246 244
279 278 277 279 280 280 280 280 279 278 277 275 275 275 275 275 275 275 276 278 280 283 285 286 287 287 286 281 274 266 263 260 261 261 261 261 258 256 256 254 251 248 246
278 278 278 279 279 280 279 279 279 278 277 276 274 273 273 274 275 276 276 277 278 279 280 279 279 278 276 274 271 268 266 265 265 266 265 265 263 257 256 257 256 252 248
275 276 277 278 278 278 278 278 277 276 275 274 274 273 273 272 273 274 274 274 274 274 273 271 271 270 269 268 267 268 268 270 270 269 267 266 265 261 256 255 255 255 252
276 277 278 279 280 280 279 278 276 275 274 272 270 270 270 271 271 271 271 271 270 268 267 266 266 266 266 264 264 266 268 270 271 272 271 268 265 263 259 255 253 253 253
279 280 280 281 281 280 278 276 274 272 271 270 269 268 268 268 268 268 268 269 268 266 265 265 266 267 267 266 264 263 265 266 268 271 273 271 267 263 261 259 256 255 253
274 276 277 278 278 277 275 273 272 270 269 269 268 268 268 267 267 266 265 265 265 265 265 266 267 268 268 269 267 265 263 263 265 267 270 270 268 264 260 258 257 257 256
271 273 274 275 275 274 272 271 270 269 269 268 268 268 267 266 266 265 265 264 263 264 264 265 266 267 268 269 269 269 267 265 264 265 266 267 267 264 260 256 255 255 255
274 274 275 276 275 274 274 273 272 271 270 269 268 268 267 265 265 265 265 266 266 266 267 267 267 268 268 268 268 269 268 267 265 263 262 263 264 264 262 258 255 253 252
279 280 280 279 279 279 279 278 277 275 274 273 271 270 269 268 268 267 267 268 268 268 269 269 269 269 269 269 269 269 268 267 265 264 262 261 262 263 263 260 256 253 251
284 286 287 286 286 285 284 283 282 281 280 279 278 276 275 273 272 271 270 270 270 270 270 270 271 270 270 269 269 269 268 267 266 264 262 260 259 260 260 260 257 253 249
288 289 289 289 289 288 287 286 286 285 284 283 282 281 281 280 278 277 275 273 272 271 270 270 270 271 270 269 268 267 266 266 265 264 262 259 256 255 256 256 255 252 249
291 290 290 289 289 288 287 286 286 285 284 283 282 282 282 281 281 281 279 278 276 275 273 271 270 270 269 268 267 266 265 263 262 262 260 258 256 253 252 251 251 250 248
289 289 288 288 287 286 285 284 283 282 282 282 281 281 281 281 281 281 280 279 278 277 275 274 272 270 268 266 264 263 262 262 260 259 257 256 254 252 250 249 248 249 248
289 288 287 286 285 285 284 282 281 280 280 280 280 279 279 279 280 280 279 278 277 276 275 273 273 271 269 266 263 260 259 258 258 257 255 253 252 250 248 246 246 246 247
290 288 287 286 286 285 284 283 282 281 280 279 279 278 278 277 277 278 278 277 276 275 273 272 272 270 268 266 263 260 257 256 255 254 254 253 251 249 247 246 245 245 246
291 289 288 286 285 284 283 283 282 281 280 279 279 277 277 276 276 276 275 275 274 273 271 269 269 268 265 264 262 259 256 254 252 252 252 252 251 250 248 247 246 245 245
292 291 289 287 285 283 282 281 281 280 279 279 278 277 276 276 276 275 274 272 272 271 269 267 266 265 263 261 259 257 254 252 251 251 250 250 249 248 247 247 247 246 247
295 294 292 289 287 285 283 282 281 280 279 278 277 276 275 274 274 273 272 271 271 270 268 266 264 262 259 257 255 253 251 250 250 248 247 248 248 248 249 249 250 250 250
300 298 296 293 291 288 286 283 282 280 278 277 275 274 272 271 270 270 270 270 271 269 267 264 261 258 255 252 250 249 249 248 246 246 246 248 249 251 252 253 254 255 255
300 299 297 295 293 290 288 284 281 279 277 275 273 271 269 268 268 268 269 270 269 267 264 262 258 254 251 248 247 247 246 246 246 247 248 250 252 254 256 258 259 259 260
299 297 295 293 291 289 286 282 279 276 274 272 270 269 268 267 267 267 267 267 267 265 262 259 256 253 249 247 246 245 245 245 247 248 250 253 256 258 259 261 261 261 262
Height
5868 5867 5867 5865 5864 5863 5862 5861 5860 5860 5859 5859 5858 5858 5857 5857 5856 5856 5856 5856 5855 5855 5854 5853 5853 5852 5851 5849 5848 5847 5847 5846 5845 5845 5845 5844 5844 5844 5845 5846 5848 5850 5851
5865 5864 5863 5862 5861 5860 5859 5858 5857 5857 5857 5856 5856 5855 5855 5855 5854 5854 5853 5853 5853 5852 5851 5851 5850 5849 5848 5847 5846 5845 5844 5843 5842 5842 5842 5842 5841 5841 5841 5843 5844 5846 5847
5862 5861 5860 5858 5857 5856 5855 5854 5854 5854 5853 5853 5853 5852 5852 5851 5851 5851 5850 5850 5850 5849 5848 5847 5846 5846 5845 5844 5842 5841 5841 5840 5840 5839 5839 5839 5839 5839 5839 5839 5840 5842 5844
5858 5857 5855 5854 5853 5852 5851 5851 5850 5850 5849 5849 5849 5848 5848 5848 5847 5847 5846 5846 5845 5845 5844 5843 5842 5841 5841 5840 5839 5838 5837 5837 5836 5836 5836 5836 5836 5836 5836 5836 5837 5838 5839
5853 5852 5851 5850 5849 5848 5848 5847 5846 5846 5845 5845 5845 5844 5844 5843 5843 5843 5842 5841 5841 5840 5840 5839 5838 5837 5837 5836 5836 5835 5834 5834 5833 5833 5833 5833 5833 5833 5833 5833 5833 5834 5835
5849 5848 5847 5846 5846 5845 5844 5843 5843 5842 5841 5840 5840 5839 5839 5839 5838 5838 5837 5837 5836 5836 5835 5835 5834 5834 5833 5833 5833 5832 5832 5831 5831 5831 5830 5830 5830 5830 5830 5830 5830 5830 5831
5845 5844 5843 5842 5841 5840 5839 5839 5838 5837 5836 5835 5835 5834 5834 5833 5833 5833 5832 5832 5831 5831 5830 5830 5830 5829 5829 5829 5829 5829 5828 5828 5828 5828 5827 5827 5827 5828 5827 5828 5828 5828 5828
5840 5839 5838 5837 5836 5835 5834 5833 5832 5832 5831 5830 5829 5829 5828 5828 5827 5827 5827 5826 5826 5826 5825 5825 5825 5825 5825 5825 5825 5825 5825 5825 5824 5824 5824 5824 5824 5824 5825 5825 5825 5825 5825
5834 5834 5832 5831 5830 5829 5828 5827 5826 5825 5825 5824 5823 5823 5823 5822 5822 5821 5821 5821 5821 5820 5820 5820 5820 5820 5820 5821 5821 5821 5821 5821 5820 5820 5820 5821 5821 5821 5821 5822 5823 5823 5823
5829 5828 5827 5825 5824 5823 5821 5821 5820 5819 5819 5818 5817 5817 5817 5816 5816 5816 5816 5815 5815 5815 5815 5815 5815 5815 5815 5815 5816 5816 5817 5816 5816 5816 5816 5817 5817 5817 5818 5818 5819 5820 5820
5823 5822 5821 5819 5818 5816 5815 5815 5814 5813 5813 5812 5812 5811 5811 5811 5811 5811 5810 5810 5810 5810 5810 5810 5810 5809 5809 5809 5810 5810 5811 5811 5811 5811 5811 5812 5812 5813 5813 5814 5814 5815 5816
5817 5816 5815 5814 5813 5811 5810 5809 5808 5808 5807 5807 5806 5806 5806 5805 5805 5805 5805 5804 5804 5804 5803 5803 5803 5803 5803 5802 5802 5803 5804 5805 5805 5805 5805 5806 5806 5807 5808 5808 5809 5810 5810
5811 5810 5810 5809 5807 5806 5805 5804 5803 5802 5802 5801 5800 5800 5799 5799 5798 5798 5797 5797 5797 5796 5796 5796 5795 5795 5795 5795 5795 5795 5796 5796 5797 5798 5798 5799 5799 5800 5801 5802 5803 5803 5804
5806 5805 5804 5803 5801 5800 5799 5798 5797 5796 5795 5794 5793 5793 5792 5791 5790 5790 5789 5788 5788 5787 5787 5786 5786 5786 5786 5786 5786 5786 5787 5787 5788 5789 5790 5791 5792 5793 5794 5795 5796 5797 5798
5800 5799 5798 5796 5795 5793 5792 5791 5789 5788 5787 5786 5785 5784 5783 5782 5781 5780 5779 5778 5778 5778 5777 5776 5776 5775 5775 5775 5776 5776 5777 5777 5777 5778 5780 5782 5783 5784 5785 5787 5788 5789 5790
5794 5793 5791 5789 5788 5786 5784 5783 5781 5779 5778 5777 5775 5774 5773 5772 5771 5770 5769 5768 5767 5766 5766 5765 5765 5764 5764 5764 5764 5764 5765 5766 5766 5767 5769 5771 5773 5774 5775 5777 5778 5780 5782
5788 5785 5783 5781 5779 5778 5776 5774 5772 5769 5768 5766 5764 5763 5762 5760 5759 5758 5757 5756 5755 5754 5754 5753 5753 5753 5752 5752 5752 5752 5752 5753 5754 5755 5756 5758 5760 5762 5764 5765 5767 5769 5771
5779 5776 5774 5771 5769 5767 5765 5763 5760 5758 5756 5754 5752 5750 5749 5747 5746 5745 5744 5743 5742 5741 5740 5740 5740 5740 5739 5739 5739 5739 5739 5740 5741 5742 5744 5745 5747 5749 5751 5753 5755 5758 5760
5770 5766 5763 5759 5756 5753 5751 5748 5746 5744 5742 5740 5738 5736 5735 5734 5732 5731 5730 5729 5728 5727 5726 5726 5726 5726 5725 5726 5726 5726 5726 5726 5727 5728 5730 5732 5734 5737 5739 5741 5744 5746 5748
5758 5754 5750 5746 5742 5738 5735 5732 5730 5728 5726 5724 5722 5721 5720 5718 5717 5715 5714 5713 5713 5712 5711 5711 5711 5711 5711 5711 5712 5713 5713 5712 5713 5715 5716 5719 5721 5724 5727 5729 5731 5734 5736
5744 5740 5735 5731 5727 5723 5719 5716 5713 5711 5709 5707 5705 5704 5702 5701 5700 5699 5698 5697 5697 5696 5696 5696 5695 5696 5696 5697 5698 5699 5699 5699 5700 5702 5704 5706 5709 5711 5714 5716 5718 5721 5723
5729 5724 5720 5716 5711 5707 5703 5700 5697 5695 5692 5691 5689 5687 5685 5684 5683 5682 5681 5681 5681 5681 5680 5680 5680 5681 5682 5683 5684 5685 5686 5687 5688 5690 5692 5694 5696 5698 5700 5703 5705 5708 5710
5712 5708 5703 5699 5695 5691 5687 5684 5681 5678 5676 5674 5672 5671 5669 5667 5666 5666 5665 5665 5665 5665 5665 5665 5665 5666 5667 5668 5669 5671 5673 5674 5676 5678 5680 5681 5684 5686 5688 5691 5693 5695 5698
5695 5691 5686 5682 5678 5674 5670 5666 5663 5660 5658 5657 5655 5653 5652 5651 5650 5650 5650 5649 5649 5649 5649 5650 5650 5651 5652 5654 5656 5658 5660 5662 5664 5666 5668 5670 5671 5673 5675 5677 5679 5682 5684
5677 5672 5667 5663 5659 5654 5651 5647 5644 5641 5639 5638 5637 5635 5635 5634 5634 5634 5634 5634 5634 5634 5634 5634 5635 5636 5638 5640 5642 5644 5647 5649 5651 5654 5656 5658 5659 5660 5662 5663 5665 5667 5670
5657 5651 5647 5643 5639 5634 5631 5627 5624 5622 5620 5619 5618 5618 5618 5618 5618 5618 5618 5619 5619 5619 5619 5619 5620 5621 5623 5625 5628 5631 5634 5637 5639 5641 5644 5645 5646 5647 5648 5649 5650 5652 5654